Vertical_Velocity
-0 3 -2 -5 -3 -3 -4 -1 -2 0 -2 -5 6 -10 -3 -4 -6 -21 8 -3 -3 -1 -1 2 -1 -0 -0 0 -2 0 -2 -0 -1 8 -0 -0 -3 1 1 3 3 -5 -2
3 1 -1 -3 -3 -1 0 -1 -0 -5 -5 5 1 -1 2 9 4 -0 -4 -8 -6 -6 -8 -3 -4 -6 2 1 -1 -3 -6 -5 -3 -14 -1 -2 -2 1 1 -1 -1 2 -0
0 -0 -5 -3 -3 -4 -1 -4 2 1 -1 -5 1 0 4 7 4 -1 1 -2 1 -1 -3 1 5 3 3 0 -3 -3 -0 3 1 -1 -4 -13 -8 -11 -1 2 1 -5 -5
-2 -4 -4 -3 -0 -0 -5 1 3 1 -3 3 4 3 10 6 7 3 -2 -6 0 -3 -3 -0 -1 -2 6 4 -0 2 -0 -5 -3 -2 -4 -9 -7 -2 4 -8 -8 3 -5
-3 -5 -5 -0 -5 -1 -3 3 4 -2 6 4 2 -1 -2 8 12 11 10 -4 -1 2 -3 1 1 -7 -3 -1 0 -2 2 2 4 5 4 -2 1 4 -1 -0 -0 1 2
-7 -6 -4 -4 -2 1 1 1 3 0 -1 2 -0 -1 -1 4 -1 3 10 1 5 0 6 1 1 5 -8 -3 1 -2 -0 -1 -7 1 -1 -1 3 2 -3 -2 -1 -2 -5
-1 1 0 -7 -2 1 2 -4 0 2 2 -0 1 2 3 5 6 8 5 2 2 -3 -1 -3 4 -2 5 5 -7 -1 3 -2 -11 5 -1 2 -3 1 -2 -0 -0 -1 -0
1 0 -2 -1 5 4 5 5 3 -1 -3 -6 -2 -7 -5 -1 6 8 5 -1 0 2 3 2 2 4 2 -1 3 -2 0 3 -5 2 -6 -2 -1 1 -0 -5 -4 0 -1
0 6 5 8 3 4 1 -2 -1 -2 -5 -3 3 16 7 1 3 2 5 -5 -0 -2 8 5 6 -7 -0 1 -4 -0 -3 -5 1 2 -1 -0 3 4 4 -2 3 -6 1
2 4 4 4 3 0 0 1 3 1 2 0 -1 1 -1 3 1 -1 -0 -3 -3 -5 -3 5 4 -5 2 2 -3 -5 -0 3 -1 3 -7 -7 -3 -1 2 -1 -2 -2 2
1 2 2 3 4 2 1 0 -1 0 -0 -1 3 3 -2 1 1 -3 4 4 8 1 0 -2 -3 1 1 -1 1 1 2 -0 -1 -0 -0 -3 -5 1 5 2 -4 -1 -3
3 1 3 3 2 1 -1 -3 -4 -3 0 1 -2 3 2 5 3 1 5 2 0 1 1 1 -1 5 0 -1 -1 3 -1 -0 -1 2 1 1 -1 1 3 -0 0 2 4
9 9 1 2 1 0 -3 -1 -4 -2 1 4 0 4 -2 0 0 6 9 3 5 5 -3 8 -6 7 3 -1 0 4 0 1 2 2 -0 -0 0 3 3 -0 -1 -3 -4
6 3 1 -1 -1 -5 -3 -0 1 -2 -2 1 2 -1 -3 -2 -2 2 4 0 2 -21 2 2 3 2 1 -2 -1 2 -0 1 0 -3 -4 2 0 -1 0 2 0 -1 -2
3 2 1 -3 -2 -4 -3 -1 3 -1 8 9 1 -2 -1 -4 -4 1 -4 6 -8 1 6 -4 2 -2 -6 -13 -13 -12 -6 -5 -2 -1 -1 0 0 -1 1 3 -1 -2 -1
-2 1 -2 -4 -2 -4 -3 -6 -3 2 -2 0 6 -4 2 0 4 -3 -5 -0 -1 1 -1 2 2 3 0 1 1 2 -0 0 -2 3 -0 -1 -0 -1 1 1 -3 0 -1
-4 -1 2 -1 -8 -7 -0 -4 2 -2 -2 0 -4 -2 -0 -2 -2 -3 -3 -2 -1 -0 2 -1 -2 -1 0 1 -2 0 2 1 -0 -2 -1 2 1 0 -0 -3 -0 1 1
2 -1 -2 -1 -2 -1 -4 1 -1 2 3 -7 -1 -1 -1 0 -2 -3 -4 -2 -2 -1 3 5 1 -3 -6 -1 1 0 1 0 -1 -2 -1 -1 1 1 -1 -2 1 -0 -0
3 -12 9 6 5 -1 2 1 -4 -1 2 -23 3 -5 -2 -2 -2 -2 -0 -1 3 3 0 -9 -4 -1 -2 -2 -0 -1 -0 -0 -0 -3 -2 0 0 0 0 -1 1 1 -0
-7 -4 10 2 -2 -3 1 5 -2 3 -1 -5 -4 -3 -1 -0 -1 -3 -2 -1 -1 1 -4 0 -1 0 -2 -1 -2 -2 -1 -1 -3 -2 0 0 0 1 0 1 1 -0 0
-3 4 3 4 -6 -1 -0 2 1 -3 3 -4 -5 -14 -9 -1 0 -5 -12 -9 3 -0 -3 4 2 -3 -4 1 2 1 -0 0 -2 0 1 -0 2 1 0 1 0 -0 -0
10 -3 4 -2 3 -8 1 0 -0 -1 3 7 3 -8 -3 1 5 1 -1 -3 -3 -3 4 -3 2 -5 -3 -1 -2 -0 -0 -1 -1 1 0 1 0 -1 0 0 -1 -1 -0
7 -4 0 0 -3 -4 -1 -2 5 -4 5 -3 -0 -9 -1 -1 0 -1 -1 -1 1 -1 -1 -0 -1 1 -3 0 -0 1 -0 -0 0 0 0 0 -1 -1 1 1 -1 -2 -0
11 5 14 13 11 2 9 -7 -6 -4 -0 2 -6 0 -2 2 0 -1 -2 -3 3 -1 -2 -1 0 -1 -4 0 -2 -0 -1 1 0 -0 0 0 -1 -0 0 2 -1 -2 -0
-9 -2 1 -8 9 -6 4 -5 5 6 -6 -3 -2 -2 -1 -2 -3 -3 -2 2 -1 0 -2 -1 -1 -3 0 -0 -1 -3 -0 1 -0 0 0 0 0 -0 -0 0 0 -3 -1
-8 1 -8 -3 0 1 1 -0 1 6 0 -3 0 5 -5 -5 -2 -2 -2 -3 -3 -3 -2 -5 -1 -1 -3 -0 1 -1 -1 0 -0 -1 -1 -0 0 -0 0 -1 0 -3 -1
Height
3164 3167 3170 3173 3175 3177 3179 3180 3181 3181 3182 3180 3182 3181 3181 3180 3179 3176 3175 3174 3174 3174 3172 3171 3171 3171 3170 3169 3168 3167 3165 3164 3162 3163 3161 3158 3154 3152 3149 3146 3143 3140 3138
3158 3162 3166 3169 3171 3172 3174 3174 3177 3176 3176 3178 3177 3176 3174 3172 3171 3171 3172 3171 3170 3170 3168 3167 3167 3166 3165 3165 3164 3163 3161 3160 3157 3156 3155 3153 3150 3147 3143 3140 3138 3134 3132
3154 3157 3160 3162 3165 3166 3167 3169 3170 3171 3170 3172 3171 3172 3169 3167 3165 3165 3166 3164 3164 3163 3162 3162 3162 3162 3161 3159 3158 3158 3157 3154 3152 3149 3146 3144 3142 3140 3138 3134 3130 3127 3126
3147 3151 3154 3157 3159 3160 3162 3163 3164 3165 3164 3165 3166 3166 3165 3163 3160 3158 3158 3157 3157 3156 3156 3157 3157 3157 3156 3154 3153 3152 3151 3148 3146 3142 3139 3136 3135 3134 3130 3127 3123 3122 3119
3141 3145 3148 3151 3153 3153 3155 3157 3158 3158 3159 3159 3159 3160 3160 3157 3155 3153 3152 3149 3150 3150 3150 3150 3150 3151 3152 3151 3148 3147 3144 3143 3141 3138 3134 3131 3129 3126 3123 3120 3116 3113 3110
3135 3140 3143 3144 3146 3149 3150 3150 3151 3152 3151 3152 3151 3153 3152 3149 3146 3144 3143 3142 3142 3143 3142 3143 3145 3146 3145 3145 3144 3141 3138 3134 3132 3130 3127 3123 3120 3117 3114 3110 3107 3104 3099
3131 3134 3135 3136 3141 3143 3143 3144 3144 3144 3144 3144 3144 3144 3141 3139 3138 3136 3136 3134 3134 3135 3136 3138 3140 3140 3139 3136 3135 3133 3131 3127 3123 3121 3118 3116 3112 3109 3104 3101 3098 3093 3090
3125 3127 3130 3132 3134 3135 3136 3137 3136 3136 3137 3137 3134 3132 3130 3129 3130 3128 3127 3126 3127 3128 3130 3131 3132 3132 3130 3129 3126 3123 3120 3119 3116 3111 3109 3107 3104 3099 3094 3089 3086 3083 3081
3117 3121 3124 3126 3128 3129 3130 3130 3131 3130 3130 3129 3126 3124 3121 3120 3120 3120 3119 3118 3120 3123 3125 3125 3124 3125 3124 3122 3118 3114 3112 3110 3107 3103 3101 3099 3096 3090 3086 3081 3078 3074 3069
3112 3115 3118 3120 3121 3122 3124 3124 3124 3123 3121 3119 3116 3116 3114 3114 3113 3113 3112 3113 3114 3116 3117 3117 3117 3117 3115 3112 3110 3107 3105 3102 3098 3097 3092 3088 3086 3083 3080 3075 3069 3064 3060
3105 3108 3111 3112 3114 3116 3117 3117 3116 3114 3113 3111 3110 3109 3108 3107 3106 3106 3107 3108 3109 3110 3111 3110 3108 3110 3107 3104 3103 3100 3097 3093 3091 3087 3084 3081 3078 3075 3071 3067 3061 3057 3052
3098 3101 3103 3105 3107 3108 3109 3108 3108 3107 3105 3104 3103 3103 3103 3101 3100 3099 3100 3102 3103 3105 3104 3103 3100 3100 3099 3097 3095 3092 3089 3085 3082 3079 3076 3073 3071 3069 3065 3061 3057 3052 3047
3091 3094 3097 3099 3100 3100 3100 3100 3099 3099 3098 3097 3097 3097 3097 3096 3096 3095 3095 3097 3099 3099 3097 3096 3093 3093 3091 3088 3086 3083 3079 3077 3074 3071 3069 3067 3065 3062 3058 3053 3048 3043 3038
3087 3089 3091 3092 3092 3093 3092 3092 3091 3092 3092 3091 3091 3091 3091 3090 3089 3090 3090 3091 3091 3091 3092 3089 3088 3087 3084 3080 3077 3075 3073 3070 3068 3064 3063 3061 3059 3054 3050 3045 3041 3037 3032
3081 3083 3083 3084 3084 3085 3086 3087 3086 3085 3087 3086 3084 3085 3085 3084 3085 3085 3085 3082 3085 3085 3085 3082 3082 3080 3076 3072 3068 3065 3062 3061 3061 3059 3057 3055 3051 3047 3043 3039 3034 3030 3025
3076 3077 3077 3077 3076 3077 3078 3079 3080 3081 3081 3082 3082 3081 3081 3080 3079 3079 3079 3079 3080 3080 3079 3078 3076 3073 3072 3069 3066 3064 3060 3057 3054 3053 3051 3048 3044 3040 3036 3032 3028 3024 3020
3069 3070 3070 3070 3070 3070 3071 3073 3075 3075 3077 3078 3077 3077 3076 3076 3075 3075 3075 3075 3075 3075 3074 3072 3070 3067 3065 3062 3060 3057 3055 3052 3050 3047 3044 3040 3037 3034 3031 3026 3023 3020 3016
3063 3065 3065 3065 3066 3066 3068 3070 3070 3072 3071 3072 3072 3072 3072 3071 3071 3071 3071 3071 3070 3068 3067 3066 3064 3060 3058 3056 3054 3051 3049 3046 3044 3041 3038 3035 3032 3029 3026 3023 3020 3016 3012
3056 3061 3061 3061 3062 3062 3064 3065 3066 3068 3067 3065 3066 3067 3067 3067 3067 3066 3065 3065 3064 3063 3061 3058 3056 3054 3052 3049 3047 3045 3043 3041 3039 3036 3033 3030 3027 3025 3022 3019 3017 3013 3010
3051 3055 3057 3056 3057 3059 3059 3060 3061 3063 3063 3058 3060 3060 3062 3062 3061 3059 3059 3059 3058 3057 3055 3053 3050 3048 3046 3044 3042 3040 3037 3035 3033 3031 3029 3026 3024 3021 3019 3017 3014 3011 3008
3046 3050 3051 3051 3052 3055 3055 3057 3057 3059 3060 3059 3056 3052 3056 3056 3055 3053 3051 3051 3052 3050 3048 3047 3045 3043 3040 3038 3036 3034 3032 3030 3028 3027 3025 3022 3020 3019 3017 3014 3012 3009 3006
3044 3042 3045 3048 3049 3049 3051 3052 3053 3054 3056 3055 3052 3051 3049 3051 3051 3050 3047 3045 3044 3043 3042 3040 3040 3037 3034 3032 3030 3028 3027 3026 3024 3023 3021 3020 3018 3016 3014 3012 3009 3007 3004
3037 3039 3041 3042 3043 3044 3045 3047 3048 3048 3049 3048 3046 3046 3046 3044 3044 3042 3041 3040 3039 3037 3036 3035 3034 3031 3028 3027 3025 3024 3022 3022 3021 3020 3019 3017 3015 3014 3012 3009 3007 3004 3002
3034 3034 3036 3036 3037 3040 3041 3039 3040 3040 3041 3042 3041 3038 3037 3037 3036 3036 3034 3034 3033 3032 3030 3029 3027 3026 3023 3022 3020 3019 3019 3018 3017 3017 3016 3015 3013 3011 3009 3007 3004 3002 3000
3029 3029 3030 3031 3033 3033 3034 3034 3034 3034 3032 3033 3032 3032 3030 3028 3029 3029 3028 3028 3027 3025 3024 3023 3022 3020 3020 3018 3017 3015 3015 3015 3014 3014 3013 3012 3010 3009 3007 3004 3002 3000 2999
3026 3024 3024 3025 3025 3026 3026 3027 3029 3028 3026 3025 3027 3025 3023 3022 3022 3022 3021 3020 3019 3018 3017 3016 3016 3015 3014 3013 3013 3012 3011 3011 3011 3011 3011 3009 3008 3006 3005 3003 3001 2999 2998